Tracking 17694 objects as of 28-May-2016
HD Live streaming from Space Station
objects crossing your sky now

COSMOS 2251 DEB

Track COSMOS 2251 DEB now!
10-day predictions


NORAD ID: 34473
Int'l Code: 1993-036TS
Perigee: 751.9 km
Apogee: 751.9 km
Inclination: 74.0 °
Period: 99.7 minutes
Semi major axis: 7122 km
RCS: 0.0156 m2 (small)
Launch date: June 16, 1993
Source: Commonwealth of Independent States (former USSR) (CIS)
Launch site: PLESETSK MISSILE AND SPACE COMPLEX (PKMTR)

Note: This is SATELLITE DEBRIS
Your satellite tracking list
Your tracking list is empty





NASA's NSSDC Master Catalog

Two Line Element Set (TLE):
1 34473U 93036TS  16148.50587167  .00001153  00000-0  34252-3 0  9990
2 34473  74.0330 176.7621 0026579 349.9195 132.4556 14.44155759381462
Source of the keplerian elements: AFSPC

N2YO: 534